Location: Oberwangen
(47.4286°N, 8.9679°E)
Time: 02:42:25
(UTC+00:00)

Cosmos 1452 Rocket - Visible Passes

Search period start: 23 October 2021 00:00
Search period end: 02 November 2021 00:00
Orbit: 766 x 775 km, 74.1° (Epoch: 22 October)

Date Brightness Start Highest point End Pass type
(mag) Time Alt. Az. Time Alt. Az. Time Alt. Az.
23 Oct 6.0 04:35:22 10° N 04:39:11 19° NE 04:42:57 10° E visible
24 Oct 6.2 03:59:54 10° NNE 04:02:31 14° NE 04:05:07 10° ENE visible
25 Oct 4.8 05:04:19 10° NNW 05:09:23 43° ENE 05:14:25 10° SE visible
26 Oct 5.4 04:28:22 10° N 04:32:58 29° NE 04:37:32 10° ESE visible
27 Oct 5.9 03:52:34 10° N 03:56:26 20° NE 04:00:17 10° E visible
28 Oct 6.3 03:17:04 10° NNE 03:19:48 14° NE 03:22:30 10° ENE visible
28 Oct 3.9 04:57:39 10° NNW 05:02:57 70° ENE 05:08:13 10° SSE visible
29 Oct 4.6 04:21:33 10° NNW 04:26:38 45° ENE 04:31:41 10° SE visible
30 Oct 5.3 03:45:34 10° N 03:50:13 30° NE 03:54:50 10° ESE visible
30 Oct 3.9 05:27:30 10° NNW 05:32:31 45° WSW 05:37:30 10° S visible
30 Oct 5.6 18:26:29 10° S 18:27:10 14° S 18:27:10 14° S visible
31 Oct 5.9 03:09:45 10° N 03:13:42 21° NE 03:17:37 10° E visible
31 Oct 3.5 04:51:07 10° NNW 04:56:24 72° WSW 05:01:39 10° SSE visible
31 Oct 5.0 17:51:05 10° SSE 17:53:12 20° SE 17:53:12 20° SE visible
31 Oct 5.7 19:32:09 10° SW 19:33:38 19° SW 19:33:38 19° SW visible
01 Nov 6.3 02:34:13 10° NNE 02:37:04 14° NE 02:39:53 10° ENE visible
01 Nov 3.7 04:14:53 10° NNW 04:20:11 73° ENE 04:25:27 10° SSE visible
01 Nov 5.0 17:16:18 10° SE 17:19:10 16° E 17:19:10 16° E visible
01 Nov 4.1 18:55:40 10° SSW 18:59:35 50° SW 18:59:35 50° SW visible
